timestamp,wind_dir_avg,wind_spd_avg,wind_spd_max_dir,wind_spd_gust,battery_voltage,lat,long
2023-11-19 00:04:01+00:00,183.0,14.83,182.0,17.46,12.41,47.59359,-54.27349
2023-11-19 00:14:01+00:00,179.0,15.68,183.0,18.94,12.41,47.59359,-54.27349
2023-11-19 00:24:01+00:00,184.0,14.62,186.0,16.64,12.41,47.59359,-54.27349
2023-11-19 00:34:01+00:00,183.0,16.56,189.0,19.18,12.41,47.59359,-54.27349
2023-11-19 00:44:01+00:00,184.0,14.24,188.0,16.37,12.41,47.59359,-54.27349
2023-11-19 00:54:01+00:00,182.0,14.1,188.0,15.99,12.41,47.59359,-54.27349
2023-11-19 01:04:01+00:00,181.0,14.86,184.0,17.97,12.41,47.59359,-54.27349
2023-11-19 01:14:00+00:00,182.0,13.39,187.0,15.56,12.41,47.59359,-54.27349
2023-11-19 01:24:00+00:00,181.0,13.06,188.0,15.1,12.41,47.59359,-54.27349
2023-11-19 01:34:00+00:00,181.0,12.65,179.0,13.86,12.41,47.59359,-54.27349
2023-11-19 01:44:00+00:00,177.0,13.32,178.0,16.49,12.41,47.59359,-54.27349
2023-11-19 01:54:00+00:00,178.0,13.51,179.0,16.59,12.41,47.59359,-54.27349
2023-11-19 02:04:00+00:00,182.0,14.21,181.0,16.44,12.41,47.59359,-54.27349
2023-11-19 02:14:01+00:00,178.0,14.93,185.0,18.02,12.41,47.59359,-54.27349
2023-11-19 02:24:01+00:00,181.0,16.42,183.0,19.23,12.41,47.59359,-54.27349
2023-11-19 02:34:01+00:00,180.0,15.3,187.0,18.56,12.41,47.59359,-54.27349
2023-11-19 02:44:01+00:00,177.0,14.02,177.0,15.87,12.41,47.59359,-54.27349
2023-11-19 02:54:01+00:00,178.0,14.67,179.0,17.97,12.41,47.59359,-54.27349
2023-11-19 03:04:01+00:00,178.0,15.09,179.0,17.93,12.41,47.59359,-54.27349
2023-11-19 03:14:00+00:00,175.0,14.77,174.0,17.41,12.41,47.59359,-54.27349
2023-11-19 03:24:00+00:00,177.0,14.34,184.0,16.22,12.41,47.59359,-54.27349
2023-11-19 03:34:00+00:00,179.0,14.69,179.0,16.4,12.41,47.59359,-54.27349
2023-11-19 03:44:00+00:00,178.0,14.49,181.0,16.9,12.41,47.59359,-54.27349
2023-11-19 03:54:00+00:00,179.0,14.41,179.0,16.16,12.41,47.59359,-54.27349
2023-11-19 04:04:00+00:00,178.0,14.42,179.0,16.28,12.41,47.59359,-54.27349
2023-11-19 04:14:00+00:00,178.0,13.4,184.0,15.21,12.33,47.59359,-54.27349
2023-11-19 04:24:00+00:00,180.0,15.16,180.0,18.23,12.33,47.59359,-54.27349
2023-11-19 04:34:00+00:00,181.0,15.8,180.0,17.68,12.33,47.59359,-54.27349
2023-11-19 04:44:00+00:00,178.0,14.86,182.0,18.53,12.33,47.59359,-54.27349
2023-11-19 04:54:00+00:00,179.0,16.05,184.0,18.93,12.33,47.59359,-54.27349
2023-11-19 05:04:00+00:00,179.0,16.87,183.0,19.91,12.33,47.59359,-54.27349
2023-11-19 05:14:00+00:00,179.0,15.47,179.0,18.51,12.33,47.59359,-54.27349
2023-11-19 05:24:00+00:00,180.0,14.52,185.0,16.69,12.33,47.59359,-54.27349
2023-11-19 05:34:00+00:00,177.0,15.21,179.0,17.33,12.33,47.59359,-54.27349
2023-11-19 05:44:00+00:00,178.0,16.86,183.0,19.93,12.33,47.59359,-54.27349
2023-11-19 05:54:00+00:00,181.0,17.27,184.0,19.69,12.33,47.59359,-54.27349
2023-11-19 06:04:00+00:00,179.0,18.71,161.0,22.37,12.33,47.59359,-54.27349
2023-11-19 06:14:00+00:00,181.0,19.08,184.0,22.84,12.33,47.59359,-54.27349
2023-11-19 06:24:00+00:00,181.0,18.41,185.0,21.97,12.33,47.59359,-54.27349
2023-11-19 06:34:00+00:00,180.0,18.85,174.0,23.64,12.33,47.59359,-54.27349
2023-11-19 06:44:00+00:00,181.0,19.37,185.0,22.65,12.33,47.59359,-54.27349
2023-11-19 06:54:00+00:00,182.0,17.21,177.0,21.36,12.33,47.59359,-54.27349
2023-11-19 07:04:00+00:00,182.0,17.45,188.0,20.84,12.33,47.59359,-54.27349
2023-11-19 07:14:00+00:00,182.0,16.15,183.0,18.64,12.25,47.59359,-54.27349
2023-11-19 07:24:00+00:00,181.0,16.9,181.0,21.36,12.25,47.59359,-54.27349
2023-11-19 07:34:00+00:00,183.0,16.33,184.0,19.51,12.25,47.59359,-54.27349
2023-11-19 07:44:00+00:00,182.0,19.29,178.0,24.55,12.25,47.59359,-54.27349
2023-11-19 07:54:00+00:00,181.0,17.29,184.0,21.49,12.25,47.59359,-54.27349
2023-11-19 08:04:00+00:00,182.0,17.11,181.0,20.24,12.25,47.59359,-54.27349
2023-11-19 08:14:01+00:00,186.0,17.45,198.0,21.54,12.25,47.59359,-54.27349
2023-11-19 08:24:01+00:00,184.0,19.46,181.0,25.19,12.25,47.59359,-54.27349
2023-11-19 08:34:01+00:00,183.0,19.62,180.0,24.55,12.25,47.59359,-54.27349
2023-11-19 08:44:01+00:00,185.0,18.6,182.0,24.59,12.25,47.59359,-54.27349
2023-11-19 08:54:01+00:00,186.0,20.81,191.0,25.06,12.25,47.59359,-54.27349
2023-11-19 09:04:01+00:00,184.0,21.27,195.0,26.25,12.25,47.59359,-54.27349
2023-11-19 09:14:00+00:00,188.0,23.39,184.0,27.02,12.25,47.59359,-54.27349
2023-11-19 09:24:00+00:00,181.0,20.24,182.0,24.23,12.25,47.59359,-54.27349
2023-11-19 09:34:00+00:00,188.0,24.74,177.0,29.87,12.25,47.59359,-54.27349
2023-11-19 09:44:00+00:00,183.0,21.39,196.0,26.99,12.25,47.59359,-54.27349
2023-11-19 09:54:00+00:00,186.0,23.96,193.0,28.86,12.25,47.59359,-54.27349
2023-11-19 10:04:00+00:00,181.0,26.17,174.0,32.53,12.25,47.59359,-54.27349
2023-11-19 10:14:00+00:00,190.0,24.6,193.0,29.16,12.25,47.59359,-54.27349
2023-11-19 10:24:00+00:00,186.0,25.19,177.0,29.79,12.25,47.59359,-54.27349
2023-11-19 10:34:00+00:00,187.0,23.14,191.0,29.94,12.25,47.59359,-54.27349
2023-11-19 10:44:00+00:00,189.0,23.69,197.0,27.18,12.25,47.59359,-54.27349
2023-11-19 10:54:00+00:00,189.0,23.28,192.0,28.26,12.25,47.59359,-54.27349
2023-11-19 11:04:00+00:00,195.0,26.39,198.0,34.96,12.25,47.59359,-54.27349
2023-11-19 11:14:00+00:00,193.0,24.69,187.0,28.33,12.25,47.59359,-54.27349
2023-11-19 11:24:00+00:00,195.0,27.97,204.0,33.93,12.25,47.59359,-54.27349
2023-11-19 11:34:00+00:00,192.0,27.2,191.0,32.98,12.25,47.59359,-54.27349
2023-11-19 11:44:00+00:00,198.0,25.02,195.0,29.19,12.25,47.59359,-54.27349
2023-11-19 11:54:00+00:00,195.0,24.43,193.0,30.09,12.25,47.59359,-54.27349
2023-11-19 12:04:00+00:00,197.0,24.49,193.0,28.65,12.25,47.59359,-54.27349
2023-11-19 12:14:00+00:00,200.0,23.69,202.0,26.87,12.33,47.59359,-54.27349
2023-11-19 12:24:00+00:00,203.0,22.72,208.0,28.69,12.33,47.59359,-54.27349
2023-11-19 12:34:00+00:00,206.0,20.25,212.0,26.22,12.33,47.59359,-54.27349
2023-11-19 12:44:00+00:00,210.0,22.56,215.0,26.88,12.33,47.59359,-54.27349
2023-11-19 12:54:00+00:00,217.0,20.72,214.0,26.04,12.33,47.59359,-54.27349
2023-11-19 13:04:00+00:00,222.0,15.99,217.0,21.67,12.33,47.59359,-54.27349
2023-11-19 13:14:00+00:00,220.0,16.25,223.0,19.72,12.41,47.59359,-54.27349
2023-11-19 13:24:00+00:00,221.0,17.97,212.0,22.49,12.41,47.59359,-54.27349
2023-11-19 13:34:00+00:00,217.0,20.86,215.0,23.7,12.41,47.59359,-54.27349
2023-11-19 13:44:00+00:00,222.0,17.34,222.0,20.16,12.41,47.59359,-54.27349
2023-11-19 13:54:00+00:00,222.0,15.71,226.0,19.13,12.41,47.59359,-54.27349
2023-11-19 14:04:00+00:00,220.0,17.4,220.0,21.28,12.41,47.59359,-54.27349
2023-11-19 14:14:00+00:00,220.0,16.46,217.0,22.69,12.49,47.59359,-54.27349
2023-11-19 14:24:00+00:00,219.0,13.43,227.0,17.27,12.49,47.59359,-54.27349
2023-11-19 14:34:00+00:00,219.0,14.41,227.0,16.86,12.49,47.59359,-54.27349
2023-11-19 14:44:00+00:00,219.0,13.5,226.0,17.03,12.49,47.59359,-54.27349
2023-11-19 14:54:00+00:00,221.0,14.7,227.0,17.92,12.49,47.59359,-54.27349
2023-11-19 15:04:00+00:00,218.0,14.14,226.0,17.81,12.49,47.59359,-54.27349
2023-11-19 15:14:00+00:00,214.0,11.77,222.0,14.67,12.81,47.59359,-54.27349
2023-11-19 15:24:00+00:00,212.0,12.76,216.0,15.26,12.81,47.59359,-54.27349
2023-11-19 15:34:00+00:00,210.0,11.54,210.0,13.04,12.81,47.59359,-54.27349
2023-11-19 15:44:00+00:00,211.0,11.14,211.0,12.44,12.81,47.59359,-54.27349
2023-11-19 15:54:00+00:00,211.0,10.55,208.0,11.78,12.81,47.59359,-54.27349
2023-11-19 16:04:00+00:00,216.0,8.7,216.0,10.04,12.81,47.59359,-54.27349
2023-11-19 16:14:00+00:00,246.0,9.48,250.0,11.5,13.05,47.59359,-54.27349
2023-11-19 16:24:00+00:00,234.0,7.22,232.0,8.5,13.05,47.59359,-54.27349
2023-11-19 16:34:00+00:00,245.0,8.24,245.0,8.99,13.05,47.59359,-54.27349
2023-11-19 16:44:00+00:00,244.0,7.98,246.0,9.39,13.05,47.59359,-54.27349
2023-11-19 16:54:00+00:00,235.0,7.28,236.0,8.12,13.05,47.59359,-54.27349
2023-11-19 17:04:00+00:00,235.0,7.86,237.0,8.92,13.05,47.59359,-54.27349
2023-11-19 17:14:00+00:00,240.0,8.69,247.0,11.24,12.97,47.59359,-54.27349
2023-11-19 17:24:00+00:00,238.0,8.85,236.0,9.94,12.97,47.59359,-54.27349
2023-11-19 17:34:00+00:00,241.0,7.97,242.0,8.55,12.97,47.59359,-54.27349
2023-11-19 17:44:00+00:00,238.0,9.75,249.0,14.44,12.97,47.59359,-54.27349
2023-11-19 17:54:00+00:00,255.0,12.9,254.0,15.18,12.97,47.59359,-54.27349
2023-11-19 18:04:00+00:00,252.0,12.45,253.0,14.98,12.97,47.59359,-54.27349
2023-11-19 18:14:00+00:00,254.0,13.17,250.0,15.38,12.97,47.59359,-54.27349
2023-11-19 18:24:00+00:00,261.0,10.94,262.0,13.68,12.97,47.59359,-54.27349
2023-11-19 18:34:00+00:00,259.0,9.08,260.0,13.02,12.97,47.59359,-54.27349
2023-11-19 18:44:00+00:00,259.0,9.5,258.0,13.68,12.97,47.59359,-54.27349
2023-11-19 18:54:00+00:00,256.0,7.62,258.0,8.55,12.97,47.59359,-54.27349
2023-11-19 19:04:00+00:00,253.0,8.61,255.0,9.59,12.97,47.59359,-54.27349
2023-11-19 19:14:00+00:00,249.0,7.33,253.0,7.93,12.73,47.59359,-54.27349
2023-11-19 19:24:00+00:00,246.0,6.84,244.0,7.66,12.73,47.59359,-54.27349
2023-11-19 19:34:00+00:00,248.0,7.05,247.0,7.85,12.73,47.59359,-54.27349
2023-11-19 19:44:00+00:00,246.0,7.4,250.0,8.34,12.73,47.59359,-54.27349
2023-11-19 19:54:00+00:00,245.0,7.71,241.0,8.28,12.73,47.59359,-54.27349
2023-11-19 20:04:00+00:00,259.0,7.31,262.0,7.94,12.73,47.59359,-54.27349
2023-11-19 20:14:00+00:00,263.0,10.28,265.0,14.02,12.49,47.59359,-54.27349
2023-11-19 20:24:00+00:00,267.0,7.95,265.0,8.89,12.49,47.59359,-54.27349
2023-11-19 20:34:00+00:00,268.0,7.42,271.0,8.12,12.49,47.59359,-54.27349
2023-11-19 20:44:00+00:00,253.0,6.63,250.0,7.4,12.49,47.59359,-54.27349
2023-11-19 20:54:00+00:00,255.0,6.62,247.0,7.4,12.49,47.59359,-54.27349
2023-11-19 21:04:00+00:00,263.0,5.44,262.0,6.47,12.49,47.59359,-54.27349
2023-11-19 21:14:00+00:00,254.0,6.35,252.0,6.96,12.41,47.59359,-54.27349
2023-11-19 21:24:00+00:00,247.0,6.26,250.0,7.33,12.41,47.59359,-54.27349
2023-11-19 21:34:00+00:00,253.0,6.38,249.0,7.71,12.41,47.59359,-54.27349
2023-11-19 21:44:00+00:00,239.0,5.69,240.0,6.61,12.41,47.59359,-54.27349
2023-11-19 21:54:00+00:00,241.0,6.63,241.0,7.15,12.41,47.59359,-54.27349
2023-11-19 22:04:00+00:00,246.0,5.92,242.0,7.16,12.41,47.59359,-54.27349
2023-11-19 22:14:01+00:00,246.0,4.87,244.0,5.65,12.33,47.59359,-54.27349
2023-11-19 22:24:01+00:00,245.0,5.11,249.0,5.91,12.33,47.59359,-54.27349
2023-11-19 22:34:01+00:00,246.0,4.88,252.0,5.8,12.33,47.59359,-54.27349
2023-11-19 22:44:01+00:00,250.0,5.72,245.0,6.79,12.33,47.59359,-54.27349
2023-11-19 22:54:01+00:00,262.0,6.13,267.0,6.91,12.33,47.59359,-54.27349
2023-11-19 23:04:01+00:00,263.0,5.47,259.0,6.21,12.33,47.59359,-54.27349
2023-11-19 23:14:01+00:00,270.0,5.18,276.0,6.41,12.33,47.59359,-54.27349
2023-11-19 23:24:01+00:00,272.0,5.44,269.0,6.18,12.33,47.59359,-54.27349
2023-11-19 23:34:01+00:00,271.0,5.29,264.0,5.82,12.33,47.59359,-54.27349
2023-11-19 23:44:01+00:00,294.0,4.55,292.0,5.53,12.33,47.59359,-54.27349
2023-11-19 23:54:01+00:00,302.0,5.89,303.0,7.77,12.33,47.59359,-54.27349
